PWSweather.com
Personal Weather Stations
Station Observations
CW3999
Hillsboro, OR 97123

Hillsboro, OR 97123

Lat: 45.4667, Lon: -122.951

Elevation: 155

Station Type: Davis Vantage Pro2

Latest ConditionsUpdated 7:22:06 AM PDT Monday, Sep 24, 2018
Currently Today's Max Today's Min Today's Average
Temperature 39.7°F4.3°C 49.3°F9.6°C 39.4°F4.1°C 43.4°F6.3°C
Dew Point 36.7°F2.6°C 45.0°F7.2°C 36.5°F2.5°C 39.9°F4.4°C
Winds Calm Calm Calm -Calm - - Calm Calm
Wind Gusts -- -- - -
Humidity 89% 89% 84% 87%
Pressure 30.21 in1023.0 mb 30.21 in1023.0 mb 30.17 in1021.7 mb -
Hour Temp Dew Point Humidity Winds Wind Gusts Pressure Precip Precip Rate Daily Precip Total
07:22 AM 39.7°F4.3°C 36.7°F2.6°C 89% Calm Calm -- 30.21 in1023.0 mb - 0.00 in0.0 mm 0.00 in0.0 mm
07:17 AM 39.7°F4.3°C 36.7°F2.6°C 89% Calm Calm -- 30.21 in1023.0 mb - 0.00 in0.0 mm 0.00 in0.0 mm
07:12 AM 39.7°F4.3°C 36.7°F2.6°C 89% Calm Calm -- 30.21 in1023.0 mb - 0.00 in0.0 mm 0.00 in0.0 mm
07:07 AM 39.4°F4.1°C 36.5°F2.5°C 89% Calm Calm -- 30.21 in1023.0 mb - 0.00 in0.0 mm 0.00 in0.0 mm
07:02 AM 39.6°F4.2°C 36.5°F2.5°C 89% Calm Calm -- 30.21 in1023.0 mb - 0.00 in0.0 mm 0.00 in0.0 mm
06:57 AM 40.5°F4.7°C 37.4°F3.0°C 89% Calm Calm -- 30.21 in1023.0 mb - 0.00 in0.0 mm 0.00 in0.0 mm
06:52 AM 40.5°F4.7°C 37.4°F3.0°C 89% Calm Calm -- 30.20 in1022.7 mb - 0.00 in0.0 mm 0.00 in0.0 mm
06:47 AM 39.9°F4.4°C 36.9°F2.7°C 89% Calm Calm -- 30.20 in1022.7 mb - 0.00 in0.0 mm 0.00 in0.0 mm
06:42 AM 40.5°F4.7°C 37.4°F3.0°C 89% Calm Calm -- 30.20 in1022.7 mb - 0.00 in0.0 mm 0.00 in0.0 mm
06:37 AM 40.1°F4.5°C 37.0°F2.8°C 89% Calm Calm -- 30.20 in1022.7 mb - 0.00 in0.0 mm 0.00 in0.0 mm
06:32 AM 40.5°F4.7°C 37.4°F3.0°C 89% Calm Calm -- 30.20 in1022.7 mb - 0.00 in0.0 mm 0.00 in0.0 mm
06:27 AM 40.5°F4.7°C 37.4°F3.0°C 89% Calm Calm -- 30.19 in1022.4 mb - 0.00 in0.0 mm 0.00 in0.0 mm
06:22 AM 40.5°F4.7°C 37.4°F3.0°C 89% Calm Calm -- 30.19 in1022.4 mb - 0.00 in0.0 mm 0.00 in0.0 mm
06:17 AM 40.3°F4.6°C 37.2°F2.9°C 89% Calm Calm -- 30.19 in1022.4 mb - 0.00 in0.0 mm 0.00 in0.0 mm
06:12 AM 40.3°F4.6°C 37.2°F2.9°C 89% Calm Calm -- 30.19 in1022.4 mb - 0.00 in0.0 mm 0.00 in0.0 mm
06:07 AM 40.5°F4.7°C 37.4°F3.0°C 89% Calm Calm -- 30.19 in1022.4 mb - 0.00 in0.0 mm 0.00 in0.0 mm
06:02 AM 40.3°F4.6°C 37.2°F2.9°C 89% Calm Calm -- 30.19 in1022.4 mb - 0.00 in0.0 mm 0.00 in0.0 mm
05:57 AM 40.3°F4.6°C 37.2°F2.9°C 89% Calm Calm -- 30.19 in1022.4 mb - 0.00 in0.0 mm 0.00 in0.0 mm
05:52 AM 40.6°F4.8°C 37.6°F3.1°C 89% Calm Calm -- 30.19 in1022.4 mb - 0.00 in0.0 mm 0.00 in0.0 mm
05:47 AM 40.8°F4.9°C 37.8°F3.2°C 89% Calm Calm -- 30.19 in1022.4 mb - 0.00 in0.0 mm 0.00 in0.0 mm
05:42 AM 40.5°F4.7°C 37.4°F3.0°C 89% Calm Calm -- 30.19 in1022.4 mb - 0.00 in0.0 mm 0.00 in0.0 mm
05:37 AM 40.5°F4.7°C 37.4°F3.0°C 89% Calm Calm -- 30.19 in1022.4 mb - 0.00 in0.0 mm 0.00 in0.0 mm
05:32 AM 41.0°F5.0°C 37.9°F3.3°C 89% Calm Calm -- 30.18 in1022.0 mb - 0.00 in0.0 mm 0.00 in0.0 mm
05:07 AM 41.0°F5.0°C 37.8°F3.2°C 88% Calm Calm -- 30.19 in1022.4 mb - 0.00 in0.0 mm 0.00 in0.0 mm
05:02 AM 41.4°F5.2°C 38.1°F3.4°C 88% Calm Calm -- 30.18 in1022.0 mb - 0.00 in0.0 mm 0.00 in0.0 mm
04:57 AM 41.5°F5.3°C 38.3°F3.5°C 88% Calm Calm -- 30.18 in1022.0 mb - 0.00 in0.0 mm 0.00 in0.0 mm
04:52 AM 41.5°F5.3°C 38.3°F3.5°C 88% Calm Calm -- 30.18 in1022.0 mb - 0.00 in0.0 mm 0.00 in0.0 mm
04:47 AM 42.6°F5.9°C 39.4°F4.1°C 88% Calm Calm -- 30.18 in1022.0 mb - 0.00 in0.0 mm 0.00 in0.0 mm
04:42 AM 43.0°F6.1°C 39.7°F4.3°C 88% Calm Calm -- 30.18 in1022.0 mb - 0.00 in0.0 mm 0.00 in0.0 mm
04:37 AM 42.4°F5.8°C 39.2°F4.0°C 88% Calm Calm -- 30.18 in1022.0 mb - 0.00 in0.0 mm 0.00 in0.0 mm
04:32 AM 42.6°F5.9°C 39.4°F4.1°C 88% Calm Calm -- 30.18 in1022.0 mb - 0.00 in0.0 mm 0.00 in0.0 mm
04:27 AM 43.0°F6.1°C 39.7°F4.3°C 88% Calm Calm -- 30.18 in1022.0 mb - 0.00 in0.0 mm 0.00 in0.0 mm
04:22 AM 43.3°F6.3°C 40.1°F4.5°C 88% Calm Calm -- 30.18 in1022.0 mb - 0.00 in0.0 mm 0.00 in0.0 mm
04:17 AM 43.2°F6.2°C 39.9°F4.4°C 88% Calm Calm -- 30.18 in1022.0 mb - 0.00 in0.0 mm 0.00 in0.0 mm
04:12 AM 43.2°F6.2°C 39.9°F4.4°C 88% Calm Calm -- 30.18 in1022.0 mb - 0.00 in0.0 mm 0.00 in0.0 mm
04:07 AM 43.0°F6.1°C 39.7°F4.3°C 88% Calm Calm -- 30.18 in1022.0 mb - 0.00 in0.0 mm 0.00 in0.0 mm
04:02 AM 43.0°F6.1°C 39.7°F4.3°C 88% Calm Calm -- 30.18 in1022.0 mb - 0.00 in0.0 mm 0.00 in0.0 mm
03:57 AM 43.2°F6.2°C 39.9°F4.4°C 88% Calm Calm -- 30.18 in1022.0 mb - 0.00 in0.0 mm 0.00 in0.0 mm
03:52 AM 42.8°F6.0°C 39.6°F4.2°C 88% Calm Calm -- 30.18 in1022.0 mb - 0.00 in0.0 mm 0.00 in0.0 mm
03:47 AM 42.4°F5.8°C 39.2°F4.0°C 88% Calm Calm -- 30.18 in1022.0 mb - 0.00 in0.0 mm 0.00 in0.0 mm
03:42 AM 42.8°F6.0°C 39.6°F4.2°C 88% Calm Calm -- 30.18 in1022.0 mb - 0.00 in0.0 mm 0.00 in0.0 mm
03:37 AM 43.0°F6.1°C 39.7°F4.3°C 88% Calm Calm -- 30.18 in1022.0 mb - 0.00 in0.0 mm 0.00 in0.0 mm
03:32 AM 43.2°F6.2°C 39.9°F4.4°C 88% Calm Calm -- 30.18 in1022.0 mb - 0.00 in0.0 mm 0.00 in0.0 mm
03:27 AM 43.2°F6.2°C 39.9°F4.4°C 88% Calm Calm -- 30.18 in1022.0 mb - 0.00 in0.0 mm 0.00 in0.0 mm
03:22 AM 43.2°F6.2°C 39.9°F4.4°C 88% Calm Calm -- 30.18 in1022.0 mb - 0.00 in0.0 mm 0.00 in0.0 mm
03:17 AM 43.3°F6.3°C 40.1°F4.5°C 88% Calm Calm -- 30.18 in1022.0 mb - 0.00 in0.0 mm 0.00 in0.0 mm
03:12 AM 43.3°F6.3°C 40.1°F4.5°C 88% Calm Calm -- 30.17 in1021.7 mb - 0.00 in0.0 mm 0.00 in0.0 mm
03:07 AM 43.3°F6.3°C 40.1°F4.5°C 88% Calm Calm -- 30.17 in1021.7 mb - 0.00 in0.0 mm 0.00 in0.0 mm
03:02 AM 43.2°F6.2°C 39.9°F4.4°C 88% Calm Calm -- 30.17 in1021.7 mb - 0.00 in0.0 mm 0.00 in0.0 mm
02:57 AM 43.2°F6.2°C 39.6°F4.2°C 87% Calm Calm -- 30.17 in1021.7 mb - 0.00 in0.0 mm 0.00 in0.0 mm
02:52 AM 43.3°F6.3°C 40.1°F4.5°C 88% Calm Calm -- 30.17 in1021.7 mb - 0.00 in0.0 mm 0.00 in0.0 mm
02:47 AM 42.8°F6.0°C 39.2°F4.0°C 87% Calm Calm -- 30.17 in1021.7 mb - 0.00 in0.0 mm 0.00 in0.0 mm
02:42 AM 43.2°F6.2°C 39.6°F4.2°C 87% Calm Calm -- 30.17 in1021.7 mb - 0.00 in0.0 mm 0.00 in0.0 mm
02:37 AM 43.2°F6.2°C 39.6°F4.2°C 87% Calm Calm -- 30.17 in1021.7 mb - 0.00 in0.0 mm 0.00 in0.0 mm
02:32 AM 43.2°F6.2°C 39.6°F4.2°C 87% Calm Calm -- 30.17 in1021.7 mb - 0.00 in0.0 mm 0.00 in0.0 mm
02:27 AM 43.2°F6.2°C 39.6°F4.2°C 87% Calm Calm -- 30.18 in1022.0 mb - 0.00 in0.0 mm 0.00 in0.0 mm
02:22 AM 43.7°F6.5°C 40.1°F4.5°C 87% Calm Calm -- 30.18 in1022.0 mb - 0.00 in0.0 mm 0.00 in0.0 mm
02:17 AM 44.4°F6.9°C 40.5°F4.7°C 86% Calm Calm -- 30.18 in1022.0 mb - 0.00 in0.0 mm 0.00 in0.0 mm
02:12 AM 45.1°F7.3°C 41.5°F5.3°C 87% Calm Calm -- 30.18 in1022.0 mb - 0.00 in0.0 mm 0.00 in0.0 mm
02:07 AM 45.1°F7.3°C 41.5°F5.3°C 87% Calm Calm -- 30.18 in1022.0 mb - 0.00 in0.0 mm 0.00 in0.0 mm
02:02 AM 45.1°F7.3°C 41.5°F5.3°C 87% Calm Calm -- 30.18 in1022.0 mb - 0.00 in0.0 mm 0.00 in0.0 mm
01:57 AM 45.0°F7.2°C 41.4°F5.2°C 87% Calm Calm -- 30.18 in1022.0 mb - 0.00 in0.0 mm 0.00 in0.0 mm
01:52 AM 44.8°F7.1°C 40.8°F4.9°C 86% Calm Calm -- 30.18 in1022.0 mb - 0.00 in0.0 mm 0.00 in0.0 mm
01:47 AM 45.0°F7.2°C 41.4°F5.2°C 87% Calm Calm -- 30.18 in1022.0 mb - 0.00 in0.0 mm 0.00 in0.0 mm
01:42 AM 45.3°F7.4°C 41.4°F5.2°C 86% Calm Calm -- 30.18 in1022.0 mb - 0.00 in0.0 mm 0.00 in0.0 mm
01:37 AM 45.7°F7.6°C 41.7°F5.4°C 86% Calm Calm -- 30.18 in1022.0 mb - 0.00 in0.0 mm 0.00 in0.0 mm
01:32 AM 45.7°F7.6°C 41.7°F5.4°C 86% Calm Calm -- 30.18 in1022.0 mb - 0.00 in0.0 mm 0.00 in0.0 mm
01:27 AM 46.0°F7.8°C 42.1°F5.6°C 86% Calm Calm -- 30.18 in1022.0 mb - 0.00 in0.0 mm 0.00 in0.0 mm
01:22 AM 46.4°F8.0°C 42.4°F5.8°C 86% Calm Calm -- 30.18 in1022.0 mb - 0.00 in0.0 mm 0.00 in0.0 mm
01:17 AM 46.4°F8.0°C 42.4°F5.8°C 86% Calm Calm -- 30.18 in1022.0 mb - 0.00 in0.0 mm 0.00 in0.0 mm
01:12 AM 46.2°F7.9°C 42.3°F5.7°C 86% Calm Calm -- 30.18 in1022.0 mb - 0.00 in0.0 mm 0.00 in0.0 mm
01:07 AM 46.0°F7.8°C 42.1°F5.6°C 86% Calm Calm -- 30.18 in1022.0 mb - 0.00 in0.0 mm 0.00 in0.0 mm
01:02 AM 46.2°F7.9°C 42.3°F5.7°C 86% Calm Calm -- 30.18 in1022.0 mb - 0.00 in0.0 mm 0.00 in0.0 mm
12:57 AM 46.4°F8.0°C 42.4°F5.8°C 86% Calm Calm -- 30.18 in1022.0 mb - 0.00 in0.0 mm 0.00 in0.0 mm
12:52 AM 46.4°F8.0°C 42.4°F5.8°C 86% Calm Calm -- 30.18 in1022.0 mb - 0.00 in0.0 mm 0.00 in0.0 mm
12:47 AM 46.2°F7.9°C 41.9°F5.5°C 85% Calm Calm -- 30.18 in1022.0 mb - 0.00 in0.0 mm 0.00 in0.0 mm
12:42 AM 46.8°F8.2°C 42.4°F5.8°C 85% Calm Calm -- 30.18 in1022.0 mb - 0.00 in0.0 mm 0.00 in0.0 mm
12:37 AM 47.7°F8.7°C 43.0°F6.1°C 84% Calm Calm -- 30.18 in1022.0 mb - 0.00 in0.0 mm 0.00 in0.0 mm
12:32 AM 49.1°F9.5°C 44.4°F6.9°C 84% Calm Calm -- 30.17 in1021.7 mb - 0.00 in0.0 mm 0.00 in0.0 mm
12:27 AM 49.3°F9.6°C 45.0°F7.2°C 85% Calm Calm -- 30.18 in1022.0 mb - 0.00 in0.0 mm 0.00 in0.0 mm
12:22 AM 48.7°F9.3°C 44.4°F6.9°C 85% Calm Calm -- 30.18 in1022.0 mb - 0.00 in0.0 mm 0.00 in0.0 mm
12:17 AM 48.2°F9.0°C 43.9°F6.6°C 85% Calm Calm -- 30.18 in1022.0 mb - 0.00 in0.0 mm 0.00 in0.0 mm
12:12 AM 48.2°F9.0°C 43.9°F6.6°C 85% Calm Calm -- 30.17 in1021.7 mb - 0.00 in0.0 mm 0.00 in0.0 mm
12:07 AM 48.4°F9.1°C 43.7°F6.5°C 84% Calm Calm -- 30.17 in1021.7 mb - 0.00 in0.0 mm 0.00 in0.0 mm
12:02 AM 48.4°F9.1°C 43.7°F6.5°C 84% Calm Calm -- 30.17 in1021.7 mb - 0.00 in0.0 mm 0.00 in0.0 mm